GW4413 Weather Reports


Display with metric or nautical units.
time (UTC)temp
F
wind
direction
speed
MPH
gust
MPH
rain 1hr
in
rain 24hr
in
rain mn
in
humidity
%
barometer
mb
20260902012008 62 52 0.0 0.0 0.00 0.00 0.00 77 1009.6
20260902011508 62 52 0.0 0.0 0.00 0.00 0.00 77 1009.7
20260902011014 62 52 0.0 0.0 0.00 0.00 0.00 77 1009.7
20260902010508 62 52 0.0 0.0 0.00 0.00 0.00 77 1009.7
20260902010023 62 52 0.0 0.0 0.00 0.00 0.00 77 1009.6
20260902005515 62 52 0.0 0.0 0.00 0.00 0.00 77 1009.6
20260902005012 62 52 0.0 0.0 0.00 0.00 0.00 77 1009.7
20260902004509 62 52 0.0 0.0 0.00 0.00 0.00 77 1009.7
20260902004020 62 52 0.0 0.0 0.00 0.00 0.00 77 1009.7
20260902003511 62 52 0.0 0.0 0.00 0.00 0.00 77 1009.7
20260902003012 62 52 0.0 0.0 0.00 0.00 0.00 76 1009.6
20260902002514 62 52 0.0 0.0 0.00 0.00 0.00 77 1009.6
20260902002010 62 52 0.0 0.0 0.00 0.00 0.00 76 1009.6
20260902001511 62 52 0.0 0.0 0.00 0.00 0.00 75 1009.8
20260902001015 62 52 0.0 0.0 0.00 0.00 0.00 75 1009.8
20260902000509 62 52 0.0 0.0 0.00 0.00 0.00 76 1009.7
20260902000011 62 52 0.0 0.0 0.00 0.00 0.00 75 1009.7
20260901235516 62 52 0.0 0.0 0.00 0.00 0.00 76 1009.7
20260901235009 62 52 0.0 0.0 0.00 0.00 0.00 76 1009.8
20260901234511 63 52 0.0 0.0 0.00 0.00 0.00 76 1009.7
20260901234014 63 52 0.0 0.0 0.00 0.00 0.00 76 1009.7
20260901233511 63 52 0.0 0.0 0.00 0.00 0.00 77 1009.7
20260901233021 63 52 0.0 0.0 0.00 0.00 0.00 78 1009.7
20260901232516 63 52 0.0 0.0 0.00 0.00 0.00 78 1009.6
20260901232008 63 52 0.0 0.0 0.00 0.00 0.00 78 1009.6
20260901231511 63 52 0.0 0.0 0.00 0.00 0.00 78 1009.6
20260901231014 63 52 0.0 0.0 0.00 0.00 0.00 78 1009.5
20260901230511 63 52 0.0 0.0 0.00 0.00 0.00 78 1009.5
20260901230019 63 52 0.0 0.0 0.00 0.00 0.00 78 1009.5
20260901225514 63 52 0.0 0.0 0.00 0.00 0.00 77 1009.6
20260901225011 63 52 0.0 0.0 0.00 0.00 0.00 77 1009.6
20260901224511 63 52 0.0 0.0 0.00 0.00 0.00 77 1009.6
20260901224015 63 52 0.0 0.0 0.00 0.00 0.00 76 1009.7
20260901223511 63 52 0.0 0.0 0.00 0.00 0.00 77 1009.7
20260901223012 63 52 0.0 0.0 0.00 0.00 0.00 76 1009.7
20260901222514 64 52 0.0 0.0 0.00 0.00 0.00 77 1009.7
20260901222014 64 52 0.0 0.0 0.00 0.00 0.00 77 1009.7
20260901221533 64 52 0.0 0.0 0.00 0.00 0.00 77 1009.7
20260901221019 64 52 0.0 0.0 0.00 0.00 0.00 78 1009.7
20260901220509 64 52 0.0 0.0 0.00 0.00 0.00 79 1009.8
20260901220035 64 52 0.0 0.0 0.00 0.00 0.00 80 1009.9
20260901215513 64 52 0.0 0.0 0.00 0.00 0.00 79 1010.0
20260901215008 64 52 0.0 0.0 0.00 0.00 0.00 79 1010.0
20260901214539 64 52 0.0 0.0 0.00 0.00 0.00 79 1010.0
20260901214014 64 52 0.0 0.0 0.00 0.00 0.00 79 1010.1
20260901213512 64 52 0.0 0.0 0.00 0.00 0.00 79 1010.1
20260901213031 63 52 0.0 0.0 0.00 0.00 0.00 78 1010.1
20260901212516 63 52 0.0 0.0 0.00 0.00 0.00 79 1010.2
20260901212012 64 52 0.0 0.0 0.00 0.00 0.00 79 1010.2
20260901211533 64 52 0.0 0.0 0.00 0.00 0.00 78 1010.3
20260901211015 64 52 0.0 0.0 0.00 0.00 0.00 78 1010.2
20260901210511 64 52 0.0 0.0 0.00 0.00 0.00 79 1010.3
20260901210031 64 52 0.0 0.0 0.00 0.00 0.00 79 1010.3
20260901205514 64 52 0.0 0.0 0.00 0.00 0.00 78 1010.3
20260901205012 64 52 0.0 0.0 0.00 0.00 0.00 79 1010.3
20260901204534 64 52 0.0 0.0 0.00 0.00 0.00 79 1010.3
20260901204015 64 52 0.0 2.0 0.00 0.00 0.00 79 1010.2
20260901203510 64 52 0.0 2.0 0.00 0.00 0.00 78 1010.3
20260901203040 64 46 0.0 2.0 0.00 0.00 0.00 79 1010.2
20260901202515 64 350 0.0 2.0 0.00 0.00 0.00 80 1010.3
20260901202009 63 24 0.0 2.0 0.00 0.00 0.00 80 1010.3
20260901201533 63 61 0.0 2.0 0.00 0.00 0.00 80 1010.3
20260901201015 63 61 0.0 3.0 0.00 0.00 0.00 80 1010.3
20260901200512 63 65 1.0 3.0 0.00 0.00 0.00 80 1010.3
20260901200039 63 59 1.0 3.0 0.00 0.00 0.00 81 1010.3
20260901195516 63 46 0.0 2.0 0.00 0.00 0.00 81 1010.3
20260901195014 63 46 0.0 3.0 0.00 0.00 0.00 81 1010.3
20260901194536 62 46 0.0 3.0 0.00 0.00 0.00 81 1010.3
20260901194016 62 46 1.0 3.0 0.00 0.00 0.00 82 1010.3
20260901193510 62 46 0.0 3.0 0.00 0.00 0.00 82 1010.3
20260901193040 62 46 0.0 2.0 0.00 0.00 0.00 83 1010.3
20260901192513 62 46 0.0 2.0 0.00 0.00 0.00 83 1010.4
20260901192011 61 46 0.0 2.0 0.00 0.00 0.00 82 1010.4
20260901191533 62 46 1.0 2.0 0.00 0.00 0.00 83 1010.4
20260901191017 62 46 0.0 2.0 0.00 0.00 0.00 82 1010.4
20260901190512 62 46 1.0 2.0 0.00 0.00 0.00 83 1010.4
20260901190032 62 46 0.0 2.0 0.00 0.00 0.00 83 1010.4
20260901185515 61 46 0.0 2.0 0.00 0.00 0.00 82 1010.4
20260901185011 61 46 1.0 2.0 0.00 0.00 0.00 82 1010.5
20260901184531 61 46 1.0 2.0 0.00 0.00 0.00 83 1010.4
20260901184016 61 46 0.0 2.0 0.00 0.00 0.00 83 1010.4
20260901183511 61 304 0.0 0.0 0.00 0.00 0.00 83 1010.4
20260901183036 61 304 0.0 0.0 0.00 0.00 0.00 83 1010.4
20260901182516 61 304 0.0 0.0 0.00 0.00 0.00 84 1010.4
20260901182012 61 304 0.0 0.0 0.00 0.00 0.00 83 1010.4
20260901181518 61 304 0.0 0.0 0.00 0.00 0.00 83 1010.3
20260901181003 61 304 0.0 0.0 0.00 0.00 0.00 82 1010.3
20260901180513 61 304 0.0 0.0 0.00 0.00 0.00 82 1010.4
20260901180014 61 304 0.0 2.0 0.00 0.00 0.00 82 1010.4
20260901175503 61 304 0.0 2.0 0.00 0.00 0.00 82 1010.4
20260901175011 61 304 1.0 2.0 0.00 0.00 0.00 83 1010.3
20260901174511 61 304 0.0 0.0 0.00 0.00 0.00 84 1010.2
20260901174003 61 304 0.0 0.0 0.00 0.00 0.00 85 1010.2
20260901173512 61 304 0.0 0.0 0.00 0.00 0.00 86 1010.2
20260901173015 60 304 0.0 0.0 0.00 0.00 0.00 85 1010.2
20260901172503 60 304 0.0 0.0 0.00 0.00 0.00 86 1010.1
20260901172011 60 304 0.0 0.0 0.00 0.00 0.00 87 1010.1
20260901171514 60 304 0.0 0.0 0.00 0.00 0.00 87 1010.1
20260901171016 60 304 0.0 0.0 0.00 0.00 0.00 87 1010.1
20260901170510 60 304 0.0 0.0 0.00 0.00 0.00 88 1010.1
20260901170013 60 304 0.0 0.0 0.00 0.00 0.00 89 1010.2
20260901165515 59 304 0.0 1.0 0.00 0.00 0.00 89 1010.2
20260901165011 59 304 0.0 1.0 0.00 0.00 0.00 90 1010.2
20260901164510 58 304 0.0 1.0 0.00 0.00 0.00 91 1010.2
20260901164014 58 304 0.0 1.0 0.00 0.00 0.00 91 1010.2
20260901163516 58 304 0.0 1.0 0.00 0.00 0.00 92 1010.2
20260901163015 57 304 0.0 1.0 0.00 0.00 0.00 92 1010.2
20260901162516 57 304 0.0 1.0 0.00 0.00 0.00 92 1010.1
20260901162011 57 304 0.0 1.0 0.00 0.00 0.00 92 1010.2
20260901161512 57 304 0.0 1.0 0.00 0.00 0.00 92 1010.3
20260901161020 56 304 0.0 1.0 0.00 0.00 0.00 92 1010.3
20260901160512 56 304 0.0 2.0 0.00 0.00 0.00 92 1010.2
20260901160012 56 304 0.0 2.0 0.00 0.00 0.00 92 1010.2
20260901155515 56 298 0.0 0.0 0.00 0.00 0.00 92 1010.2
20260901155012 56 298 0.0 0.0 0.00 0.00 0.00 92 1010.2
20260901154513 56 298 0.0 0.0 0.00 0.00 0.00 92 1010.2
20260901154016 56 298 0.0 0.0 0.00 0.00 0.00 92 1010.3
20260901153513 56 299 0.0 0.0 0.00 0.00 0.00 92 1010.3
20260901153022 55 298 0.0 0.0 0.00 0.00 0.00 92 1010.3
20260901152514 55 298 0.0 0.0 0.00 0.00 0.00 92 1010.2
20260901152013 55 299 0.0 0.0 0.00 0.00 0.00 92 1010.3
20260901151511 55 298 0.0 0.0 0.00 0.00 0.00 92 1010.2
20260901151016 55 298 0.0 0.0 0.00 0.00 0.00 92 1010.1
20260901150511 55 299 0.0 0.0 0.00 0.00 0.00 92 1010.0
20260901150014 55 298 0.0 0.0 0.00 0.00 0.00 92 1010.0
20260901145516 55 298 0.0 0.0 0.00 0.00 0.00 92 1010.0
20260901145010 55 298 0.0 0.0 0.00 0.00 0.00 91 1010.0
20260901144515 55 298 0.0 0.0 0.00 0.00 0.00 91 1010.0
20260901144015 55 298 0.0 0.0 0.00 0.00 0.00 91 1010.0
20260901143510 54 298 0.0 0.0 0.00 0.00 0.00 91 1009.9
20260901143014 54 298 0.0 0.0 0.00 0.00 0.00 91 1009.9
20260901142516 54 299 0.0 0.0 0.00 0.00 0.00 91 1009.9
20260901142013 54 298 0.0 0.0 0.00 0.00 0.00 91 1009.9
20260901141513 54 298 0.0 0.0 0.00 0.00 0.00 91 1010.0
20260901141021 54 298 0.0 0.0 0.00 0.00 0.00 90 1010.0
20260901140514 54 298 0.0 0.0 0.00 0.00 0.00 90 1009.9
20260901140014 54 298 0.0 0.0 0.00 0.00 0.00 90 1009.9
20260901135519 54 299 0.0 0.0 0.00 0.00 0.00 90 1009.8
20260901135013 54 298 0.0 0.0 0.00 0.00 0.00 90 1009.8
20260901134511 54 299 0.0 0.0 0.00 0.00 0.00 90 1009.8
20260901134016 54 298 0.0 0.0 0.00 0.00 0.00 90 1009.8
20260901133511 54 298 0.0 0.0 0.00 0.00 0.00 90 1009.7
20260901133011 54 298 0.0 0.0 0.00 0.00 0.00 90 1009.6
20260901132516 54 298 0.0 0.0 0.00 0.00 0.00 90 1009.7
20260901132012 54 299 0.0 0.0 0.00 0.00 0.00 90 1009.5
20260901131516 54 298 0.0 0.0 0.00 0.00 0.00 90 1009.5
20260901131015 54 299 0.0 0.0 0.00 0.00 0.00 90 1009.5
20260901130513 54 299 0.0 0.0 0.00 0.00 0.00 90 1009.5
20260901130034 54 299 0.0 0.0 0.00 0.00 0.00 89 1009.5
20260901125516 54 299 0.0 0.0 0.00 0.00 0.00 89 1009.4
20260901125012 54 298 0.0 0.0 0.00 0.00 0.00 89 1009.4
20260901124531 54 298 0.0 0.0 0.00 0.00 0.00 89 1009.4
20260901124015 54 298 0.0 0.0 0.00 0.00 0.00 89 1009.3
20260901123513 54 298 0.0 0.0 0.00 0.00 0.00 89 1009.4
20260901123037 54 298 0.0 0.0 0.00 0.00 0.00 89 1009.5
20260901122519 54 298 0.0 0.0 0.00 0.00 0.00 89 1009.4
20260901122015 54 298 0.0 0.0 0.00 0.00 0.00 89 1009.4
20260901121533 54 298 0.0 0.0 0.00 0.00 0.00 89 1009.4
20260901121019 54 298 0.0 0.0 0.00 0.00 0.00 89 1009.4
20260901120511 54 298 0.0 0.0 0.00 0.00 0.00 89 1009.3
20260901120032 54 298 0.0 0.0 0.00 0.00 0.00 89 1009.3
20260901115516 54 298 0.0 0.0 0.00 0.00 0.00 88 1009.4
20260901115015 54 298 0.0 0.0 0.00 0.00 0.00 89 1009.3
20260901114535 54 298 0.0 0.0 0.00 0.00 0.00 88 1009.4
20260901114015 54 299 0.0 0.0 0.00 0.00 0.00 88 1009.4
20260901113514 54 298 0.0 0.0 0.00 0.00 0.00 88 1009.5
20260901113031 54 299 0.0 0.0 0.00 0.00 0.00 88 1009.5
20260901112517 54 298 0.0 0.0 0.00 0.00 0.00 88 1009.5
20260901112012 54 299 0.0 0.0 0.00 0.00 0.00 88 1009.4
20260901111532 54 298 0.0 0.0 0.00 0.00 0.00 87 1009.5
20260901111018 54 299 0.0 0.0 0.00 0.00 0.00 88 1009.5
20260901110512 54 298 0.0 0.0 0.00 0.00 0.00 88 1009.5
20260901110037 54 299 0.0 0.0 0.00 0.00 0.00 87 1009.6
20260901105515 54 298 0.0 0.0 0.00 0.00 0.00 87 1009.6
20260901105014 54 299 0.0 0.0 0.00 0.00 0.00 87 1009.6
20260901104539 54 298 0.0 0.0 0.00 0.00 0.00 88 1009.6
20260901104016 54 299 0.0 0.0 0.00 0.00 0.00 87 1009.6
20260901103511 54 298 0.0 0.0 0.00 0.00 0.00 88 1009.6
20260901103034 54 298 0.0 0.0 0.00 0.00 0.00 88 1009.5
20260901102521 54 299 0.0 0.0 0.00 0.00 0.00 88 1009.5
20260901102012 54 299 0.0 0.0 0.00 0.00 0.00 88 1009.5
20260901101538 54 298 0.0 0.0 0.00 0.00 0.00 88 1009.5
20260901101016 54 298 0.0 0.0 0.00 0.00 0.00 88 1009.6
20260901100512 54 298 0.0 0.0 0.00 0.00 0.00 88 1009.6
20260901100034 54 298 0.0 0.0 0.00 0.00 0.00 88 1009.6
20260901095517 54 298 0.0 0.0 0.00 0.00 0.00 87 1009.6
20260901095014 54 298 0.0 0.0 0.00 0.00 0.00 87 1009.6
20260901094538 54 299 0.0 0.0 0.00 0.00 0.00 86 1009.6
20260901094014 54 298 0.0 0.0 0.00 0.00 0.00 86 1009.6
20260901093512 54 298 0.0 0.0 0.00 0.00 0.00 86 1009.7
20260901093034 55 298 0.0 0.0 0.00 0.00 0.00 85 1009.6
20260901092515 55 298 0.0 0.0 0.00 0.00 0.00 85 1009.6
20260901092014 55 298 0.0 0.0 0.00 0.00 0.00 85 1009.6
20260901091519 55 298 0.0 0.0 0.00 0.00 0.00 84 1009.6
20260901091003 55 299 0.0 0.0 0.00 0.00 0.00 84 1009.7
20260901090511 55 298 0.0 0.0 0.00 0.00 0.00 84 1009.6
20260901090013 55 298 0.0 0.0 0.00 0.00 0.00 84 1009.6
20260901085503 55 298 0.0 0.0 0.00 0.00 0.00 83 1009.5
20260901085011 56 298 0.0 0.0 0.00 0.00 0.00 83 1009.5
20260901084512 56 299 0.0 0.0 0.00 0.00 0.00 82 1009.5
20260901084004 56 298 0.0 0.0 0.00 0.00 0.00 82 1009.4
20260901083512 56 298 0.0 0.0 0.00 0.00 0.00 82 1009.5
20260901083018 56 298 0.0 0.0 0.00 0.00 0.00 81 1009.4
20260901082504 56 298 0.0 0.0 0.00 0.00 0.00 81 1009.4
20260901082013 56 298 0.0 0.0 0.00 0.00 0.00 81 1009.5
20260901081513 57 298 0.0 0.0 0.00 0.00 0.00 81 1009.4
20260901081015 57 298 0.0 0.0 0.00 0.00 0.00 80 1009.5
20260901080515 57 299 0.0 0.0 0.00 0.00 0.00 80 1009.4
20260901080014 57 299 0.0 0.0 0.00 0.00 0.00 81 1009.4
20260901075515 57 298 0.0 0.0 0.00 0.00 0.00 80 1009.3
20260901075017 58 299 0.0 0.0 0.00 0.00 0.00 80 1009.4
20260901074513 58 299 0.0 0.0 0.00 0.00 0.00 80 1009.4
20260901074015 58 299 0.0 0.0 0.00 0.00 0.00 80 1009.4
20260901073514 58 298 0.0 0.0 0.00 0.00 0.00 80 1009.4
20260901073015 58 299 0.0 0.0 0.00 0.00 0.00 80 1009.4
20260901072516 58 299 0.0 0.0 0.00 0.00 0.00 80 1009.4
20260901072012 58 299 0.0 0.0 0.00 0.00 0.00 80 1009.3
20260901071514 58 299 0.0 0.0 0.00 0.00 0.00 80 1009.3
20260901071014 58 299 0.0 0.0 0.00 0.00 0.00 80 1009.4
20260901070512 58 299 0.0 0.0 0.00 0.00 0.00 79 1009.4
20260901070017 58 298 0.0 0.0 0.00 0.00 0.00 79 1009.4
20260901065516 58 299 0.0 0.0 0.00 0.00 0.00 79 1009.4
20260901065014 58 299 0.0 0.0 0.00 0.00 0.00 79 1009.5
20260901064515 58 299 0.0 0.0 0.00 0.00 0.00 79 1009.5
20260901064020 58 298 0.0 0.0 0.00 0.00 0.00 79 1009.6
20260901063511 58 298 0.0 0.0 0.00 0.00 0.00 79 1009.5
20260901063019 59 299 0.0 0.0 0.00 0.00 0.00 79 1009.5
20260901062516 59 298 0.0 0.0 0.00 0.00 0.00 78 1009.6
20260901062012 59 298 0.0 0.0 0.00 0.00 0.00 78 1009.6
20260901061516 59 299 0.0 0.0 0.00 0.00 0.00 78 1009.6
20260901061017 59 299 0.0 0.0 0.00 0.00 0.00 78 1009.6
20260901060513 59 299 0.0 0.0 0.00 0.00 0.00 77 1009.7
20260901060016 59 298 0.0 0.0 0.00 0.00 0.00 77 1009.7
20260901055518 59 298 0.0 0.0 0.00 0.00 0.00 77 1009.7
20260901055011 59 299 0.0 0.0 0.00 0.00 0.00 76 1009.8
20260901054516 60 299 0.0 0.0 0.00 0.00 0.00 76 1009.8
20260901054015 60 299 0.0 0.0 0.00 0.00 0.00 75 1009.8
20260901053512 60 299 0.0 0.0 0.00 0.00 0.00 75 1009.9
20260901053015 60 299 0.0 0.0 0.00 0.00 0.00 75 1009.9
20260901052516 60 299 0.0 0.0 0.00 0.00 0.00 75 1009.9
20260901052011 60 299 0.0 0.0 0.00 0.00 0.00 75 1009.8
20260901051527 61 299 0.0 0.0 0.00 0.00 0.00 75 1009.8
20260901051017 61 299 0.0 0.0 0.00 0.00 0.00 75 1009.7
20260901050511 61 298 0.0 0.0 0.00 0.00 0.00 76 1009.7
20260901050015 61 299 0.0 0.0 0.00 0.00 0.00 75 1009.6
20260901045515 61 299 0.0 0.0 0.00 0.00 0.00 74 1009.6
20260901045014 61 299 0.0 0.0 0.00 0.00 0.00 73 1009.7
20260901044520 61 299 0.0 0.0 0.00 0.00 0.00 73 1009.6
20260901044016 61 299 0.0 0.0 0.00 0.00 0.00 73 1009.6
20260901043514 61 299 0.0 0.0 0.00 0.00 0.00 73 1009.6
20260901043018 61 299 0.0 0.0 0.00 0.00 0.00 73 1009.5
20260901042518 62 299 0.0 0.0 0.00 0.00 0.00 73 1009.6
20260901042011 62 299 0.0 0.0 0.00 0.00 0.00 72 1009.6
20260901041543 62 299 0.0 0.0 0.00 0.00 0.00 72 1009.6
20260901041015 62 299 0.0 0.0 0.00 0.00 0.00 72 1009.6
20260901040512 62 299 0.0 0.0 0.00 0.00 0.00 72 1009.5
20260901040020 62 299 0.0 0.0 0.00 0.00 0.00 72 1009.5
20260901035517 62 299 0.0 0.0 0.00 0.00 0.00 71 1009.5
20260901035013 62 298 0.0 0.0 0.00 0.00 0.00 71 1009.5
20260901034535 62 299 0.0 0.0 0.00 0.00 0.00 71 1009.4
20260901034017 62 298 0.0 0.0 0.00 0.00 0.00 71 1009.4
20260901033514 63 299 0.0 0.0 0.00 0.00 0.00 70 1009.3
20260901033031 63 299 0.0 0.0 0.00 0.00 0.00 70 1009.3
20260901032518 63 299 0.0 0.0 0.00 0.00 0.00 70 1009.3
20260901032016 63 299 0.0 0.0 0.00 0.00 0.00 70 1009.3
20260901031550 63 299 0.0 0.0 0.00 0.00 0.00 70 1009.3
20260901031015 63 299 0.0 0.0 0.00 0.00 0.00 70 1009.3
20260901030513 63 299 0.0 0.0 0.00 0.00 0.00 69 1009.3
20260901030036 64 299 0.0 0.0 0.00 0.00 0.00 68 1009.4
20260901025514 64 299 0.0 0.0 0.00 0.00 0.00 68 1009.4
20260901025012 64 299 0.0 0.0 0.00 0.00 0.00 67 1009.4
20260901024533 64 299 0.0 0.0 0.00 0.00 0.00 67 1009.4
20260901024014 64 299 0.0 0.0 0.00 0.00 0.00 67 1009.4
20260901023511 64 299 0.0 0.0 0.00 0.00 0.00 67 1009.4
20260901023035 64 299 0.0 0.0 0.00 0.00 0.00 67 1009.4
20260901022518 64 299 0.0 0.0 0.00 0.00 0.00 67 1009.5
20260901022017 65 299 0.0 0.0 0.00 0.00 0.00 68 1009.5
20260901021535 65 299 0.0 0.0 0.00 0.00 0.00 66 1009.6
20260901021017 65 299 0.0 0.0 0.00 0.00 0.00 67 1009.6
20260901020513 65 299 0.0 0.0 0.00 0.00 0.00 67 1009.6
20260901020034 65 299 0.0 0.0 0.00 0.00 0.00 68 1009.7
20260901015518 65 299 0.0 0.0 0.00 0.00 0.00 67 1009.6
20260901015014 65 299 0.0 0.0 0.00 0.00 0.00 67 1009.6
20260901014544 65 299 0.0 1.0 0.00 0.00 0.00 67 1009.7
20260901014017 65 299 0.0 1.0 0.00 0.00 0.00 67 1009.7
20260901013513 65 299 0.0 1.0 0.00 0.00 0.00 67 1009.7
20260901013032 65 299 0.0 0.0 0.00 0.00 0.00 67 1009.7
20260901012516 66 299 0.0 0.0 0.00 0.00 0.00 66 1009.6